EA7RX-3 Weather Reports


time (UTC)temp
F
wind
direction
speed
knots
gust
knots
rain 1hr
in
rain 24hr
in
rain mn
in
humidity
%
barometer
mb
20260506233823 62 0.0 0.0 0.00 0.00 0.00 65 1008.3
20260506232823 62 0.0 0.0 0.00 0.00 0.00 64 1008.2
20260506231823 62 0.0 0.0 0.00 0.00 0.00 64 1008.2
20260506230824 62 0.0 0.0 0.00 0.00 0.00 63 1008.1
20260506225823 62 0.0 0.0 0.00 0.00 0.00 63 1008.1
20260506224823 62 0.0 0.0 0.00 0.00 0.00 63 1008.2
20260506223824 62 0.0 0.0 0.00 0.00 0.00 63 1008.3
20260506222823 62 0.0 0.0 0.00 0.00 0.00 62 1008.3
20260506221823 62 0.0 0.0 0.00 0.00 0.00 61 1008.3
20260506220823 63 0.0 0.0 0.00 0.00 0.00 60 1008.2
20260506215823 62 0.0 0.0 0.00 0.00 0.00 60 1008.4
20260506214823 62 0.0 0.0 0.00 0.00 0.00 59 1008.4
20260506213823 63 0.0 0.0 0.00 0.00 0.00 55 1008.4
20260506212824 64 0.0 0.0 0.00 0.00 0.00 53 1008.2
20260506211823 64 0.0 0.0 0.00 0.00 0.00 51 1008.2
20260506210823 64 0.0 0.0 0.00 0.00 0.00 49 1008.1
20260506205824 65 0.0 0.0 0.00 0.00 0.00 47 1007.9
20260506204823 65 0.0 0.0 0.00 0.00 0.00 44 1007.9
20260506203823 66 0.0 0.0 0.00 0.00 0.00 41 1007.8
20260506202824 66 0.0 0.0 0.00 0.00 0.00 41 1007.7
20260506201823 66 0.0 0.0 0.00 0.00 0.00 41 1007.7
20260506200823 66 0.0 0.0 0.00 0.00 0.00 41 1007.5
20260506195823 67 0.0 0.0 0.00 0.00 0.00 40 1007.4
20260506194824 67 0.0 0.0 0.00 0.00 0.00 40 1007.4
20260506193823 67 0.0 0.0 0.00 0.00 0.00 40 1007.2
20260506192823 67 0.0 0.0 0.00 0.00 0.00 39 1007.2
20260506191823 67 0.0 0.0 0.00 0.00 0.00 39 1007.3
20260506190824 68 0.0 0.0 0.00 0.00 0.00 38 1007.0
20260506185823 69 0.0 0.0 0.00 0.00 0.00 37 1007.0
20260506184823 69 0.0 0.0 0.00 0.00 0.00 37 1006.9
20260506183823 71 0.0 0.0 0.00 0.00 0.00 36 1006.7
20260506182823 72 0.0 0.0 0.00 0.00 0.00 35 1006.5
20260506181824 79 0.0 0.0 0.00 0.00 0.00 31 1005.7
20260506180823 89 0.0 0.0 0.00 0.00 0.00 26 1004.3
20260506175823 90 0.0 0.0 0.00 0.00 0.00 26 1004.3
20260506174824 93 0.0 0.0 0.00 0.00 0.00 25 1004.1
20260506173823 90 0.0 0.0 0.00 0.00 0.00 26 1004.5
20260506172823 86 0.0 0.0 0.00 0.00 0.00 29 1005.0
20260506171823 73 0.0 0.0 0.00 0.00 0.00 37 1006.8
20260506170824 71 0.0 0.0 0.00 0.00 0.00 38 1007.1
20260506165823 71 0.0 0.0 0.00 0.00 0.00 38 1007.2
20260506164823 71 0.0 0.0 0.00 0.00 0.00 39 1007.2
20260506163823 70 0.0 0.0 0.00 0.00 0.00 40 1007.4
20260506162823 68 0.0 0.0 0.00 0.00 0.00 41 1007.7
20260506161824 70 0.0 0.0 0.00 0.00 0.00 39 1007.5
20260506160823 69 0.0 0.0 0.00 0.00 0.00 40 1007.6
20260506155824 68 0.0 0.0 0.00 0.00 0.00 42 1007.9
20260506154824 70 0.0 0.0 0.00 0.00 0.00 39 1007.7
20260506153823 70 0.0 0.0 0.00 0.00 0.00 40 1007.9
20260506152823 69 0.0 0.0 0.00 0.00 0.00 42 1008.0
20260506151822 70 0.0 0.0 0.00 0.00 0.00 40 1008.1
20260506150823 68 0.0 0.0 0.00 0.00 0.00 43 1008.4
20260506145823 71 0.0 0.0 0.00 0.00 0.00 40 1008.0
20260506144824 70 0.0 0.0 0.00 0.00 0.00 40 1008.2
20260506143824 70 0.0 0.0 0.00 0.00 0.00 42 1008.6
20260506142822 69 0.0 0.0 0.00 0.00 0.00 42 1008.9
20260506141823 69 0.0 0.0 0.00 0.00 0.00 44 1009.1
20260506140822 65 0.0 0.0 0.00 0.00 0.00 49 1009.8
20260506135824 66 0.0 0.0 0.00 0.00 0.00 47 1009.6
20260506134823 66 0.0 0.0 0.00 0.00 0.00 47 1009.8
20260506133823 66 0.0 0.0 0.00 0.00 0.00 48 1009.8
20260506132824 68 0.0 0.0 0.00 0.00 0.00 47 1009.7
20260506131822 66 0.0 0.0 0.00 0.00 0.00 50 1009.9
20260506130822 67 0.0 0.0 0.00 0.00 0.00 48 1009.9
20260506125822 64 0.0 0.0 0.00 0.00 0.00 53 1010.3
20260506124823 65 0.0 0.0 0.00 0.00 0.00 53 1010.4
20260506123822 66 0.0 0.0 0.00 0.00 0.00 52 1010.3
20260506122822 65 0.0 0.0 0.00 0.00 0.00 53 1010.5
20260506121824 64 0.0 0.0 0.00 0.00 0.00 54 1010.7
20260506120822 64 0.0 0.0 0.00 0.00 0.00 55 1010.9
20260506115822 64 0.0 0.0 0.00 0.00 0.00 56 1010.9
20260506114910 64 0.0 0.0 0.00 0.00 0.00 57 1011.1
20260506113823 62 0.0 0.0 0.00 0.00 0.00 60 1011.4
20260506112822 62 0.0 0.0 0.00 0.00 0.00 65 1011.6
20260506111822 61 0.0 0.0 0.00 0.00 0.00 71 1011.7
20260506110824 59 0.0 0.0 0.00 0.00 0.00 78 1012.2
20260506105824 58 0.0 0.0 0.00 0.00 0.00 82 1012.4
20260506104822 57 0.0 0.0 0.00 0.00 0.00 83 1012.5
20260506103822 57 0.0 0.0 0.00 0.00 0.00 84 1012.5
20260506102823 56 0.0 0.0 0.00 0.00 0.00 85 1012.6
20260506101824 56 0.0 0.0 0.00 0.00 0.00 83 1012.7
20260506100822 56 0.0 0.0 0.00 0.00 0.00 83 1012.6
20260506095822 56 0.0 0.0 0.00 0.00 0.00 10 1012.8
20260506094824 56 0.0 0.0 0.00 0.00 0.00 10 1012.8
20260506093822 56 0.0 0.0 0.00 0.00 0.00 10 1012.7
20260506092823 54 0.0 0.0 0.00 0.00 0.00 10 1012.9
20260506091823 53 0.0 0.0 0.00 0.00 0.00 10 1013.0
20260506090823 54 0.0 0.0 0.00 0.00 0.00 10 1012.9
20260506085824 53 0.0 0.0 0.00 0.00 0.00 10 1013.1
20260506084823 52 0.0 0.0 0.00 0.00 0.00 10 1013.2
20260506083824 52 0.0 0.0 0.00 0.00 0.00 10 1013.3
20260506082824 52 0.0 0.0 0.00 0.00 0.00 10 1013.4
20260506081826 52 0.0 0.0 0.00 0.00 0.00 10 1013.2
20260506080822 52 0.0 0.0 0.00 0.00 0.00 10 1013.3
20260506072824 51 0.0 0.0 0.00 0.00 0.00 10 1013.4
20260506071822 51 0.0 0.0 0.00 0.00 0.00 10 1013.4
20260506070822 51 0.0 0.0 0.00 0.00 0.00 10 1013.5
20260506061824 51 0.0 0.0 0.00 0.00 0.00 10 1013.3
20260506060822 50 0.0 0.0 0.00 0.00 0.00 10 1013.3
20260506050824 50 0.0 0.0 0.00 0.00 0.00 10 1013.1
20260506044822 50 0.0 0.0 0.00 0.00 0.00 10 1013.0
20260506043822 50 0.0 0.0 0.00 0.00 0.00 10 1013.1
20260506042824 49 0.0 0.0 0.00 0.00 0.00 10 1013.3
20260506041822 49 0.0 0.0 0.00 0.00 0.00 10 1013.4
20260506040824 50 0.0 0.0 0.00 0.00 0.00 10 1013.4
20260506035822 50 0.0 0.0 0.00 0.00 0.00 10 1013.3
20260506034824 50 0.0 0.0 0.00 0.00 0.00 10 1013.4
20260506033822 50 0.0 0.0 0.00 0.00 0.00 10 1013.3
20260506032822 50 0.0 0.0 0.00 0.00 0.00 10 1013.3
20260506031822 50 0.0 0.0 0.00 0.00 0.00 10 1013.5
20260506030822 50 0.0 0.0 0.00 0.00 0.00 10 1013.4
20260506025826 50 0.0 0.0 0.00 0.00 0.00 10 1013.4
20260506024824 50 0.0 0.0 0.00 0.00 0.00 10 1013.4
20260506023824 50 0.0 0.0 0.00 0.00 0.00 10 1013.3
20260506022822 51 0.0 0.0 0.00 0.00 0.00 10 1013.3
20260506021822 51 0.0 0.0 0.00 0.00 0.00 10 1013.3
20260506020824 50 0.0 0.0 0.00 0.00 0.00 10 1013.3
20260506015822 51 0.0 0.0 0.00 0.00 0.00 10 1013.5
20260506014824 50 0.0 0.0 0.00 0.00 0.00 10 1013.5
20260506013822 50 0.0 0.0 0.00 0.00 0.00 10 1013.7
20260506012824 50 0.0 0.0 0.00 0.00 0.00 10 1013.7
20260506011824 50 0.0 0.0 0.00 0.00 0.00 10 1013.7
20260506010824 51 0.0 0.0 0.00 0.00 0.00 10 1013.8
20260506005822 51 0.0 0.0 0.00 0.00 0.00 10 1013.8
20260506004832 51 0.0 0.0 0.00 0.00 0.00 10 1013.7
20260506003822 51 0.0 0.0 0.00 0.00 0.00 10 1013.8
20260506002822 52 0.0 0.0 0.00 0.00 0.00 10 1013.8
20260506001824 52 0.0 0.0 0.00 0.00 0.00 10 1013.9
20260506000822 52 0.0 0.0 0.00 0.00 0.00 10 1013.8
20260505235824 52 0.0 0.0 0.00 0.00 0.00 10 1013.8
20260505234822 52 0.0 0.0 0.00 0.00 0.00 10 1013.7